Regional Weather Roundup
Issued by NWS

Home | Current Version | Previous Version | Text Only | Print | Product List | Glossary On
Versions: 1 2 3 4 5 6 7 8 9 10 11 12 13 14 15 16 17 18 19 20 21 22 23 24 25 26 27 28 29 30 31 32 33 34 35 36 37 38 39 40 41 42 43 44 45 46 47 48 49 50
000
ASUS43 KOAX 010410
RWRNE

WEATHER ROUNDUP FOR NEBRASKA
NATIONAL WEATHER SERVICE OMAHA NE
1000 PM CST SAT JAN 31 2015

NOTES: SATELLITE DATA IS BEING USED TO AUGMENT CLOUD COVER ABOVE
       12000 FEET.
       "FAIR" INDICATES FEW OR NO CLOUDS BELOW 12,000 FEET WITH NO
       SIGNIFICANT WEATHER AND/OR OBSTRUCTIONS TO VISIBILITY.

  * THESE STATIONS DO NOT REPORT WEATHER SUCH AS RAIN...SNOW OR FOG.

NEZ001>004-019>022-054>056-010500-
NEBRASKA PANHANDLE

CITY           SKY/WX    TMP DP  RH WIND       PRES   REMARKS
SCOTTSBLUFF    CLOUDY    26  24  92 MISG      29.97R
ALLIANCE       CLOUDY    19  15  84 N17       29.96R WCI   4
CHADRON        LGT SNOW  20  18  92 N13       30.06R VSB 1   WCI   7
KIMBALL        FOG       26  26  99 N13G18    29.87S VSB 1/2 WCI  15
SIDNEY         CLOUDY    24  21  88 N16       29.91R WCI  11
$$

NEZ057>060-069>072-079>082-010500-
SOUTHWEST NEBRASKA

CITY           SKY/WX    TMP DP  RH WIND       PRES   REMARKS
NORTH PLATTE   LGT SNOW  22  18  85 N20G30    29.91R FOG     WCI   7
IMPERIAL       LGT SNOW  25  22  88 N20       29.91R VSB 1   WCI  11
LEXINGTON      LGT SNOW  27  25  93 N20       29.87R WCI  14
MCCOOK         LGT SNOW  31  28  89 N17G28    29.85R VSB 1   WCI  19
OGALLALA       LGT SNOW  23  22  94 N15       29.94R VSB 1   WCI  10
$$

NEZ005>010-023>029-035>040-094-010500-
NORTH CENTRAL NEBRASKA

CITY           SKY/WX    TMP DP  RH WIND       PRES   REMARKS
VALENTINE      LGT SNOW  16  12  84 N14       30.04R VSB 3/4 WCI   2
AINSWORTH      LGT SNOW  18  15  91 N17       30.00R WCI   2
BROKEN BOW     LGT SNOW  22  18  85 N25       29.89R FOG     WCI   5
O`NEILL        LGT SNOW  24  22  93 N15G23    29.97R WCI  11
ORD            LGT SNOW  25  21  85 N17       29.89S FOG     WCI  12
THEDFORD       LGT SNOW  19  18  93 N13       29.97R WCI   7
$$

NEZ041-046>049-061>064-073>077-083>087-010500-
SOUTH CENTRAL NEBRASKA

CITY           SKY/WX    TMP DP  RH WIND       PRES   REMARKS
GRAND ISLAND   LGT SNOW  31  30  96 N9        29.85S FOG     WCI  23
AURORA         LGT SNOW  32  32 100 NE6       29.84S WCI  26
HASTINGS       LGT SNOW  31  30  96 N8        29.82S VSB 3/4 WCI  23
HEBRON         LGT SNOW  32  31  96 CALM      29.82S
HOLDREGE       LGT SNOW  31  30  96 N10       29.82S WCI  23
KEARNEY *      CLOUDY    30  28  93 N12       29.84S WCI  21
YORK           LGT SNOW  32  32 100 NE5       29.85S WCI  27
$$

NEZ011>018-030>034-042>045-010500-
NORTHEAST NEBRASKA

CITY           SKY/WX    TMP DP  RH WIND       PRES   REMARKS
NORFOLK        LGT SNOW  30  28  92 N16G22    29.90R VSB 3/4 WCI  19
ALBION         LGT SNOW  30  28  89 N9G17     29.89R WCI  22
BLAIR          LGT SNOW  33  32  96 NE7       29.88F WCI  27
FREMONT        LGT SNOW  33  33  99 NE6       29.89S WCI  28
TEKAMAH        LGT SNOW  33  32  96 NE7       29.91F VSB 1   WCI  27
WAYNE          LGT SNOW  29  28  95 NE14      29.92S WCI  19
$$

NEZ050>053-065>068-078-088>093-010500-
SOUTHEAST NEBRASKA

CITY           SKY/WX    TMP DP  RH WIND       PRES   REMARKS
LINCOLN        LGT SNOW  33  31  92 E3        29.87F VSB 1
OMAHA EPPLEY   LGT SNOW  33  32  96 E3        29.90F VSB 1
BEATRICE       LGT SNOW  32  32 100 SE5       29.84F WCI  27
FALLS CITY     LGT SNOW  32  32 100 SE8       29.88F VSB 3/4 WCI  25
NEBRASKA CITY  LGT SNOW  32  32 100 SE8       29.87F WCI  25
PLATTSMOUTH    LGT SNOW  32  31  96 SE6       29.88F WCI  27
$$

NEZ044-045-051>053-067-010500-
OMAHA AREA

CITY           SKY/WX    TMP DP  RH WIND       PRES   REMARKS
OMAHA EPPLEY   LGT SNOW  33  32  96 E3        29.90F VSB 1
BLAIR          LGT SNOW  33  32  96 NE7       29.88F WCI  27
FREMONT        LGT SNOW  33  33  99 NE6       29.89S WCI  28
MILLARD        LGT SNOW  33  32  96 CALM      29.89F
OFFUTT AFB     LGT SNOW  32  32  97 E7        29.89F FOG     WCI  26
PLATTSMOUTH    LGT SNOW  32  31  96 SE6       29.88F WCI  27
WAHOO          LGT SNOW  33  31  96 E7        29.88S WCI  26
$$



USA.gov is the U.S. government's official web portal to all federal, state and local government web resources and services.